Flag for Falkland Islands Weather past 2 weeks in Stanley, Falkland Islands

Now
50 °F

Passing clouds.


Feels Like: 48 °F
Forecast: 49 / 56 °F
Wind: 6 mph from North

Location: Mount Pleasant Airport

Current Time: Mar 28, 2015 at 7:06:47 AM

Latest Report: Mar 28, 2015 at 5:50 AM


Visibility: N/A

Pressure: 29.65 "Hg

Humidity: 88%

Dew point: 46 °F

Location of StanleyLocation

Historic Weather in Stanley — Graph

°F

Stanley temperature yesterday

Maximum temperature yesterday: 52 °F (at 10:50 AM)
Minimum temperature yesterday: 45 °F (at 12:50 AM)
Average temperature yesterday: 48 °F

Past Weeks' High & Low Weather Summary

 TemperatureHumidityPressure
High64 °F (Mar 16, 1:50 PM)100% (Mar 16, 8:50 AM)30.39 "Hg (Mar 16, 8:50 AM)
Low36 °F (Mar 20, 10:50 PM)31% (Mar 15, 11:50 AM)29.12 "Hg (Mar 16, 3:50 PM)
Average48 °F77%29.77 "Hg
* Reported Mar 13 5:50 AM — Mar 28 5:50 AM, Stanley, Weather by CustomWeather, © 2015

Note: Actual official high and low records may vary slightly from our data, if they occured in-between our weather recording intervals... More about our weather records

Advertising

Stanley weather history for previous 24 hours

 ConditionsComfort  
Time TempWeatherWind HumidityBarometerVisibility
5:50 AM
Sat, Mar 28
50 °FPassing clouds.6 mph88%29.65 "HgN/A
4:50 AM50 °FPassing clouds.10 mph88%29.65 "HgN/A
3:50 AM50 °FPassing clouds.16 mph88%29.65 "HgN/A
2:50 AM48 °FPassing clouds.22 mph94%29.68 "HgN/A
1:50 AM50 °FPartly cloudy.18 mph82%29.71 "HgN/A
12:50 AM50 °FPassing clouds.12 mph76%29.74 "HgN/A
11:50 PM
Fri, Mar 27
48 °FPartly cloudy.20 mph82%29.74 "HgN/A
10:50 PM48 °FPassing clouds.17 mph82%29.77 "HgN/A
9:50 PM46 °FPassing clouds.22 mph87%29.77 "HgN/A
8:50 PM48 °FPassing clouds.28 mph82%29.77 "HgN/A
7:50 PM48 °FPassing clouds.23 mph76%29.77 "HgN/A
6:50 PM48 °FPassing clouds.24 mph76%29.77 "HgN/A
5:50 PM50 °FScattered clouds.24 mph71%29.80 "HgN/A
4:50 PM52 °FBroken clouds.24 mph67%29.80 "HgN/A
3:50 PM52 °FBroken clouds.22 mph67%29.83 "HgN/A
2:50 PM52 °FBroken clouds.24 mph67%29.86 "HgN/A
1:50 PM52 °FPartly sunny.25 mph67%29.86 "HgN/A
12:50 PM52 °FPartly sunny.25 mph72%29.89 "HgN/A
11:50 AM52 °FBroken clouds.21 mph67%29.89 "HgN/A
10:50 AM52 °FPartly sunny.20 mph62%29.92 "HgN/A
9:50 AM50 °FPartly sunny.20 mph67%29.95 "HgN/A
8:50 AM46 °FBroken clouds.13 mph87%29.98 "HgN/A
7:50 AM46 °FDrizzle. Broken clouds.15 mph87%29.98 "HgN/A
Weather by CustomWeather, © 2015

See weather overviewHow to use our weather pages